CW4167 Weather Reports


time (UTC)temp
C
wind
direction
speed
KPH
gust
KPH
rain 1hr
cm
rain 24hr
cm
rain mn
cm
humidity
%
barometer
mb
20260831045706 14 122 11.3 12.9 0.00 0.41 0.00 92 1006.0
20260831044705 13 133 8.0 9.7 0.00 0.43 0.00 92 1006.1
20260831043205 13 146 8.0 12.9 0.00 0.43 0.00 92 1006.3
20260831040705 13 159 9.7 11.3 0.00 0.43 0.00 92 1006.4
20260831035705 13 157 8.0 9.7 0.00 0.43 0.00 91 1006.3
20260831034706 13 165 8.0 9.7 0.00 0.43 0.00 91 1006.4
20260831034206 13 161 8.0 11.3 0.00 0.43 0.00 92 1006.4
20260831032706 13 154 8.0 9.7 0.00 0.43 0.00 91 1006.2
20260831032205 13 157 8.0 9.7 0.00 0.43 0.00 91 1006.2
20260831031206 13 163 8.0 11.3 0.00 0.43 0.00 91 1006.5
20260831030705 13 162 8.0 11.3 0.00 0.43 0.00 91 1006.5
20260831030205 13 153 8.0 11.3 0.00 0.43 0.00 91 1006.6
20260831025705 13 156 8.0 11.3 0.00 0.43 0.00 91 1006.6
20260831024706 13 154 8.0 9.7 0.00 0.43 0.00 91 1006.6
20260831023207 13 169 8.0 11.3 0.00 0.43 0.00 91 1006.8
20260831022707 13 162 8.0 12.9 0.00 0.43 0.00 91 1006.7
20260831021705 13 156 8.0 11.3 0.00 0.43 0.00 91 1006.9
20260831021206 13 172 8.0 12.9 0.00 0.43 0.00 91 1006.9
20260831020705 13 174 8.0 11.3 0.00 0.43 0.00 91 1006.9
20260831020206 13 174 8.0 12.9 0.00 0.43 0.00 91 1006.9
20260831015206 13 167 9.7 11.3 0.00 0.43 0.00 91 1007.0
20260831014707 13 172 9.7 11.3 0.00 0.43 0.00 91 1007.0
20260831013207 13 162 9.7 11.3 0.00 0.43 0.00 90 1006.9
20260831011205 13 175 8.0 11.3 0.00 0.43 0.00 90 1006.9
20260831010205 13 165 8.0 12.9 0.00 0.43 0.00 90 1006.9
20260831005707 13 169 8.0 11.3 0.00 0.43 0.00 90 1007.0
20260831004207 13 183 9.7 16.1 0.00 0.48 0.00 90 1007.1
20260831003705 13 169 9.7 12.9 0.00 0.48 0.00 90 1007.1
20260831003206 13 174 9.7 16.1 0.00 0.48 0.00 90 1007.1
20260831002705 13 172 9.7 9.7 0.00 0.48 0.00 90 1007.1
20260831002205 13 166 9.7 11.3 0.00 0.48 0.00 90 1007.0
20260831001205 13 159 9.7 20.9 0.00 0.48 0.00 90 1007.0
20260831000206 13 167 11.3 11.3 0.00 0.48 0.00 90 1007.0
20260830235206 13 172 8.0 12.9 0.00 0.48 0.00 89 1007.0
20260830233205 14 177 4.8 9.7 0.00 0.48 0.00 89 1006.9
20260830231205 14 167 8.0 11.3 0.00 0.48 0.00 89 1006.8
20260830230206 14 160 8.0 8.0 0.00 0.48 0.00 89 1006.8
20260830224705 15 160 6.4 9.7 0.00 0.48 0.00 89 1006.8
20260830224205 15 159 4.8 9.7 0.00 0.48 0.00 88 1006.8
20260830223205 15 162 4.8 8.0 0.00 0.48 0.00 89 1006.8
20260830222205 15 186 4.8 9.7 0.00 0.48 0.00 89 1006.9
20260830221206 15 193 3.2 8.0 0.00 0.48 0.00 88 1006.8
20260830220705 15 197 4.8 8.0 0.00 0.48 0.00 88 1006.9
20260830215708 15 210 4.8 9.7 0.00 0.48 0.48 87 1006.8
20260830215205 15 224 4.8 4.8 0.00 0.48 0.48 87 1006.8
20260830213206 15 219 8.0 9.7 0.00 0.48 0.48 87 1006.8
20260830212707 15 228 4.8 8.0 0.00 0.48 0.48 86 1006.8
20260830212205 15 208 4.8 8.0 0.00 0.48 0.48 86 1006.8
20260830211707 15 230 6.4 9.7 0.00 0.48 0.48 86 1006.7
20260830205707 16 232 4.8 9.7 0.00 0.48 0.48 86 1006.6
20260830205206 16 268 1.6 11.3 0.00 0.48 0.48 85 1006.6
20260830202206 16 224 6.4 11.3 0.00 0.48 0.48 85 1006.7
20260830201207 16 265 6.4 11.3 0.00 0.48 0.48 85 1006.5
20260830200705 16 268 8.0 16.1 0.00 0.48 0.48 85 1006.4
20260830200205 16 240 4.8 12.9 0.00 0.48 0.48 85 1006.4
20260830195206 16 236 8.0 16.1 0.00 0.48 0.48 85 1006.3
20260830194708 16 232 9.7 20.9 0.00 0.48 0.48 86 1006.3
20260830194205 16 254 14.5 22.5 0.00 0.48 0.48 86 1006.1
20260830193205 16 247 11.3 25.7 0.00 0.48 0.48 87 1006.1
20260830192706 16 236 12.9 25.7 0.00 0.48 0.48 87 1006.1
20260830191705 16 245 11.3 24.1 0.00 0.48 0.48 87 1006.0
20260830191208 16 233 9.7 20.9 0.00 0.48 0.48 87 1005.8
20260830190707 16 245 14.5 27.4 0.00 0.48 0.48 87 1005.8
20260830185705 16 253 9.7 14.5 0.00 0.48 0.48 87 1005.5
20260830185205 16 245 9.7 20.9 0.00 0.48 0.48 87 1005.5
20260830183704 16 243 8.0 12.9 0.00 0.48 0.48 87 1005.5
20260830181705 17 260 8.0 22.5 0.00 0.48 0.48 87 1005.0
20260830180708 17 257 12.9 24.1 0.00 0.48 0.48 88 1004.8
20260830175204 17 263 14.5 24.1 0.00 0.48 0.48 88 1004.7
20260830174704 17 247 12.9 22.5 0.00 0.48 0.48 88 1004.5
20260830173706 17 273 14.5 24.1 0.00 0.48 0.48 88 1004.5
20260830172706 17 255 11.3 24.1 0.00 0.48 0.48 88 1004.3
20260830171205 17 287 11.3 20.9 0.00 0.48 0.48 88 1004.0
20260830170205 17 287 11.3 20.9 0.00 0.48 0.48 88 1003.8
20260830164205 17 297 19.3 32.2 0.00 0.48 0.48 88 1003.6
20260830163204 17 283 20.9 33.8 0.00 0.48 0.48 88 1003.3
20260830162706 17 285 22.5 35.4 0.00 0.48 0.48 88 1003.1
20260830160706 18 291 14.5 22.5 0.00 0.48 0.48 88 1002.4
20260830160208 18 298 14.5 37.0 0.00 0.48 0.48 88 1002.4
20260830154206 18 296 20.9 37.0 0.00 0.48 0.48 88 1002.2
20260830152707 19 282 14.5 22.5 0.00 0.48 0.48 88 1001.7
20260830152208 19 274 16.1 24.1 0.00 0.48 0.48 89 1001.7
20260830151206 19 288 19.3 25.7 0.00 0.48 0.48 89 1001.6
20260830150205 20 274 20.9 35.4 0.00 0.48 0.48 90 1001.1
20260830143706 19 247 14.5 22.5 0.03 0.48 0.48 92 1000.7
20260830143207 19 256 9.7 25.7 0.10 0.48 0.48 91 1000.7
20260830142205 19 208 14.5 24.1 0.18 0.48 0.48 91 1000.7
20260830140708 18 228 14.5 24.1 0.18 0.48 0.48 91 1000.5
20260830135705 18 205 16.1 32.2 0.18 0.48 0.48 91 1000.5
20260830133706 18 183 14.5 24.1 0.15 0.46 0.46 90 1000.4
20260830132708 18 177 14.5 29.0 0.00 0.30 0.30 91 1000.3
20260830131206 18 181 19.3 40.2 0.00 0.30 0.30 91 1000.2
20260830130205 18 183 22.5 45.1 0.00 0.30 0.30 91 1000.1
20260830125206 18 196 16.1 25.7 0.00 0.30 0.30 91 1000.1
20260830123204 18 172 14.5 25.7 0.03 0.30 0.30 91 1000.1
20260830122704 18 194 16.1 27.4 0.03 0.30 0.30 91 1000.0
20260830122205 18 191 16.1 33.8 0.03 0.30 0.30 91 1000.0
20260830121705 18 185 14.5 25.7 0.05 0.30 0.30 91 1000.0
20260830120207 18 201 14.5 25.7 0.05 0.30 0.30 91 1000.1
20260830115205 18 186 17.7 25.7 0.05 0.30 0.30 91 1000.1
20260830112707 18 195 22.5 33.8 0.03 0.28 0.28 91 1000.0
20260830110206 18 190 20.9 33.8 0.00 0.25 0.25 91 1000.0
20260830105205 18 186 20.9 37.0 0.03 0.25 0.25 91 1000.0
20260830103706 18 183 22.5 33.8 0.05 0.25 0.25 91 999.9
20260830102706 18 187 19.3 29.0 0.05 0.25 0.25 91 999.9
20260830102205 18 181 19.3 33.8 0.05 0.25 0.25 91 999.9
20260830101705 18 158 16.1 25.7 0.05 0.25 0.25 91 1000.0
20260830100707 18 172 16.1 29.0 0.05 0.25 0.25 90 1000.0
20260830100207 18 165 20.9 29.0 0.05 0.25 0.25 90 1000.1
20260830094706 18 171 20.9 29.0 0.00 0.18 0.18 90 1000.1
20260830093705 18 179 22.5 33.8 0.00 0.23 0.18 90 1000.0
20260830092706 18 164 16.1 29.0 0.00 0.23 0.18 90 1000.0
20260830091205 18 169 24.1 32.2 0.00 0.23 0.18 91 1000.0
20260830085705 17 157 19.3 35.4 0.00 0.23 0.18 91 1000.1
20260830084205 17 151 20.9 32.2 0.05 0.23 0.18 91 1000.2
20260830083705 17 159 19.3 32.2 0.08 0.23 0.18 91 1000.2
20260830083206 17 149 22.5 29.0 0.08 0.23 0.18 91 1000.4
20260830082706 17 163 22.5 33.8 0.08 0.23 0.18 91 1000.4
20260830081707 17 164 19.3 27.4 0.08 0.23 0.18 91 1000.4
20260830080705 17 161 16.1 29.0 0.08 0.23 0.18 91 1000.4
20260830080205 17 161 20.9 33.8 0.08 0.23 0.18 91 1000.4
20260830075705 17 161 22.5 35.4 0.08 0.23 0.18 91 1000.6
20260830075205 17 155 24.1 33.8 0.08 0.23 0.18 91 1000.6
20260830074705 17 162 20.9 33.8 0.08 0.23 0.18 91 1000.6
20260830074205 17 162 20.9 35.4 0.03 0.15 0.13 91 1000.5
20260830073707 17 156 25.7 38.6 0.00 0.13 0.10 91 1000.6
20260830073205 17 157 25.7 33.8 0.00 0.13 0.10 91 1000.6
20260830072704 17 156 19.3 27.4 0.00 0.13 0.10 91 1000.6
20260830072205 17 146 25.7 33.8 0.00 0.13 0.10 91 1000.5
20260830071704 17 151 20.9 29.0 0.00 0.13 0.10 91 1000.6
20260830071205 17 169 19.3 29.0 0.00 0.13 0.10 92 1000.6
20260830070706 17 147 20.9 29.0 0.00 0.13 0.10 92 1000.8
20260830065704 17 155 20.9 35.4 0.00 0.13 0.10 92 1000.8
20260830065206 17 160 19.3 29.0 0.00 0.13 0.10 91 1000.8
20260830064705 17 141 16.1 32.2 0.00 0.13 0.10 92 1000.8
20260830063205 16 160 16.1 32.2 0.00 0.13 0.10 92 1000.8
20260830061205 16 152 12.9 20.9 0.00 0.13 0.10 91 1000.9
20260830060705 16 141 14.5 20.9 0.00 0.13 0.10 91 1000.9
20260830060206 16 148 16.1 25.7 0.00 0.13 0.10 91 1000.9
20260830055705 16 145 16.1 24.1 0.03 0.13 0.10 91 1001.0
20260830055206 16 136 14.5 22.5 0.05 0.13 0.10 91 1001.1
20260830054705 16 139 14.5 22.5 0.05 0.13 0.10 91 1001.1
20260830054206 16 147 19.3 24.1 0.05 0.13 0.10 91 1001.1
20260830053205 16 139 19.3 29.0 0.05 0.13 0.10 91 1001.1
20260830050205 16 128 12.9 20.9 0.05 0.13 0.10 91 1001.3